TimeCST,TemperatureF,Dew PointF,Humidity,Sea Level PressureIn,VisibilityMPH,Wind Direction,Wind SpeedMPH,Gust SpeedMPH,PrecipitationIn,Events,Conditions,WindDirDegrees,DateUTC
12:14 AM,8.6,1.4,73,30.38,10.0,Calm,Calm,-,N/A,,Clear,0,2013-02-21 06:14:00
12:34 AM,8.6,1.4,73,30.38,10.0,Calm,Calm,-,N/A,,Clear,0,2013-02-21 06:34:00
12:53 AM,8.6,1.4,73,30.39,10.0,Calm,Calm,-,N/A,,Clear,0,2013-02-21 06:53:00
1:14 AM,6.8,-0.4,72,30.39,10.0,Calm,Calm,-,N/A,,Clear,0,2013-02-21 07:14:00
1:34 AM,6.8,1.4,79,30.40,10.0,ENE,3.5,-,N/A,,Clear,60,2013-02-21 07:34:00
1:53 AM,6.8,1.4,79,30.41,10.0,Calm,Calm,-,N/A,,Clear,0,2013-02-21 07:53:00
2:14 AM,6.8,1.4,79,30.41,10.0,Calm,Calm,-,N/A,,Clear,0,2013-02-21 08:14:00
2:34 AM,5.0,-0.4,78,30.41,10.0,Calm,Calm,-,N/A,,Clear,0,2013-02-21 08:34:00
2:54 AM,5.0,1.4,85,30.41,10.0,NE,3.5,-,N/A,,Clear,40,2013-02-21 08:54:00
3:14 AM,5.0,1.4,85,30.41,10.0,Calm,Calm,-,N/A,,Clear,0,2013-02-21 09:14:00
3:34 AM,3.2,-0.4,85,30.42,10.0,Calm,Calm,-,N/A,,Clear,0,2013-02-21 09:34:00
3:54 AM,3.2,-0.4,85,30.42,10.0,Calm,Calm,-,N/A,,Clear,0,2013-02-21 09:54:00
4:14 AM,3.2,-0.4,85,30.41,10.0,NE,3.5,-,N/A,,Clear,40,2013-02-21 10:14:00
4:34 AM,3.2,-0.4,85,30.41,10.0,NE,3.5,-,N/A,,Clear,40,2013-02-21 10:34:00
5:14 AM,1.4,-0.4,92,30.39,10.0,NE,4.6,-,N/A,,Clear,50,2013-02-21 11:14:00
5:54 AM,1.4,-0.4,92,30.35,10.0,NE,5.8,-,N/A,,Clear,40,2013-02-21 11:54:00
6:14 AM,5.0,1.4,85,30.32,10.0,NE,6.9,-,N/A,,Clear,50,2013-02-21 12:14:00
6:33 AM,5.0,1.4,85,30.31,10.0,NE,9.2,-,N/A,,Clear,40,2013-02-21 12:33:00
6:45 AM,5.0,1.4,85,30.35,12.0,ENE,5.8,-,N/A,,Clear,70,2013-02-21 12:45:00
6:54 AM,5.0,1.4,85,30.40,10.0,Calm,Calm,-,N/A,,Clear,0,2013-02-21 12:54:00
7:45 AM,3.2,-0.4,85,30.44,12.0,NNE,4.6,-,N/A,,Scattered Clouds,30,2013-02-21 13:45:00
8:55 AM,6.8,3.2,85,30.41,12.0,NE,4.6,-,N/A,,Scattered Clouds,50,2013-02-21 14:55:00
10:45 AM,14.0,5.0,67,30.37,12.0,ENE,10.4,-,N/A,,Clear,70,2013-02-21 16:45:00
12:45 PM,19.4,6.8,58,30.32,12.0,NE,8.1,-,N/A,,Clear,40,2013-02-21 18:45:00
1:45 PM,19.4,8.6,63,30.30,10.0,ENE,8.1,-,N/A,,Mostly Cloudy,60,2013-02-21 19:45:00
2:45 PM,21.2,8.6,58,30.27,10.0,NE,6.9,-,N/A,,Mostly Cloudy,40,2013-02-21 20:45:00
4:45 PM,23.0,10.4,59,30.23,10.0,ENE,12.7,-,N/A,,Overcast,60,2013-02-21 22:45:00
5:45 PM,23.0,12.2,63,30.21,10.0,ENE,8.1,-,N/A,,Overcast,60,2013-02-21 23:45:00
6:45 PM,23.0,12.2,63,30.19,10.0,NE,5.8,-,N/A,,Overcast,50,2013-02-22 00:45:00
7:45 PM,21.2,12.2,68,30.15,10.0,NE,5.8,-,N/A,,Overcast,40,2013-02-22 01:45:00
9:14 PM,23.0,14.0,68,30.14,10.0,North,4.6,-,N/A,,Clear,10,2013-02-22 03:14:00
9:34 PM,23.0,15.8,74,30.14,10.0,North,4.6,-,N/A,,Clear,10,2013-02-22 03:34:00
9:54 PM,23.0,15.8,74,30.13,10.0,NNE,5.8,-,N/A,,Clear,20,2013-02-22 03:54:00
10:14 PM,24.8,15.8,69,30.13,10.0,NNE,5.8,-,N/A,,Clear,20,2013-02-22 04:14:00
10:34 PM,24.8,17.6,74,30.11,10.0,NNE,6.9,-,N/A,,Clear,20,2013-02-22 04:34:00
10:54 PM,23.0,17.6,80,30.10,10.0,NNE,9.2,-,N/A,,Clear,20,2013-02-22 04:54:00
11:14 PM,23.0,17.6,80,30.10,10.0,NE,6.9,-,N/A,,Clear,40,2013-02-22 05:14:00
11:34 PM,23.0,17.6,80,30.09,10.0,NE,4.6,-,N/A,,Scattered Clouds,40,2013-02-22 05:34:00
11:54 PM,23.0,17.6,80,30.09,10.0,ENE,8.1,-,N/A,,Mostly Cloudy,60,2013-02-22 05:54:00